Time,TemperatureF,DewpointF,PressureIn,WindDirection,WindDirectionDegrees,WindSpeedMPH,WindSpeedGustMPH,Humidity,HourlyPrecipIn,Conditions,Clouds,dailyrainin,SoftwareType,DateUTC
2013-01-18 00:03:00,32.1,31.0,30.43,West,269,0.0,1.0,97,0.00,,,0.00,weatherlink.com 1.10,2013-01-18 08:03:00,
2013-01-18 00:18:00,32.0,31.0,30.43,West,269,0.0,1.0,97,0.00,,,0.00,weatherlink.com 1.10,2013-01-18 08:18:00,
2013-01-18 00:33:00,31.8,31.0,30.43,SSW,212,0.0,1.0,97,0.00,,,0.00,weatherlink.com 1.10,2013-01-18 08:33:00,
2013-01-18 00:48:00,31.8,31.0,30.42,WSW,249,0.0,1.0,97,0.00,,,0.00,weatherlink.com 1.10,2013-01-18 08:48:00,
2013-01-18 01:03:00,31.7,31.0,30.42,WSW,245,0.0,1.0,97,0.00,,,0.00,weatherlink.com 1.10,2013-01-18 09:03:00,
2013-01-18 01:18:00,31.7,31.0,30.42,WNW,291,0.0,1.0,97,0.00,,,0.00,weatherlink.com 1.10,2013-01-18 09:18:00,
2013-01-18 01:33:00,31.7,31.0,30.42,WSW,245,0.0,1.0,97,0.00,,,0.00,weatherlink.com 1.10,2013-01-18 09:33:00,
2013-01-18 01:48:00,31.6,31.0,30.42,WSW,250,0.0,1.0,97,0.00,,,0.00,weatherlink.com 1.10,2013-01-18 09:48:00,
2013-01-18 02:03:00,31.6,31.0,30.42,WSW,248,0.0,1.0,98,0.00,,,0.00,weatherlink.com 1.10,2013-01-18 10:03:00,
2013-01-18 02:18:00,31.6,31.0,30.42,WNW,290,0.0,1.0,98,0.00,,,0.00,weatherlink.com 1.10,2013-01-18 10:18:00,
2013-01-18 02:33:00,31.5,31.0,30.42,West,271,0.0,1.0,98,0.00,,,0.00,weatherlink.com 1.10,2013-01-18 10:33:00,
2013-01-18 02:48:00,31.5,31.0,30.42,NW,308,0.0,1.0,98,0.00,,,0.00,weatherlink.com 1.10,2013-01-18 10:48:00,
2013-01-18 03:03:00,31.4,31.0,30.42,NW,307,0.0,1.0,98,0.00,,,0.00,weatherlink.com 1.10,2013-01-18 11:03:00,
2013-01-18 03:18:00,31.4,31.0,30.42,East,84,1.0,1.0,98,0.00,,,0.00,weatherlink.com 1.10,2013-01-18 11:18:00,
2013-01-18 03:33:00,31.4,31.0,30.41,NE,34,0.0,1.0,98,0.00,,,0.00,weatherlink.com 1.10,2013-01-18 11:33:00,
2013-01-18 03:48:00,31.3,31.0,30.41,NE,34,0.0,1.0,98,0.00,,,0.00,weatherlink.com 1.10,2013-01-18 11:48:00,
2013-01-18 04:03:00,31.3,31.0,30.41,NE,34,0.0,0.0,98,0.00,,,0.00,weatherlink.com 1.10,2013-01-18 12:03:00,
2013-01-18 04:18:00,31.0,31.0,30.41,ESE,105,0.0,2.0,98,0.00,,,0.00,weatherlink.com 1.10,2013-01-18 12:18:00,
2013-01-18 04:33:00,31.1,31.0,30.41,NW,307,0.0,1.0,98,0.00,,,0.00,weatherlink.com 1.10,2013-01-18 12:33:00,
2013-01-18 04:48:00,31.1,31.0,30.40,NW,311,0.0,0.0,98,0.00,,,0.00,weatherlink.com 1.10,2013-01-18 12:48:00,
2013-01-18 05:03:00,31.1,31.0,30.40,SE,141,0.0,0.0,98,0.00,,,0.00,weatherlink.com 1.10,2013-01-18 13:03:00,
2013-01-18 05:18:00,31.1,31.0,30.39,SE,127,0.0,1.0,98,0.00,,,0.00,weatherlink.com 1.10,2013-01-18 13:18:00,
2013-01-18 05:33:00,31.0,31.0,30.39,SSE,150,0.0,2.0,98,0.00,,,0.00,weatherlink.com 1.10,2013-01-18 13:33:00,
2013-01-18 05:48:00,30.9,30.0,30.39,SE,131,1.0,1.0,98,0.00,,,0.00,weatherlink.com 1.10,2013-01-18 13:48:00,
2013-01-18 06:03:00,30.8,30.0,30.39,ESE,115,0.0,1.0,98,0.00,,,0.00,weatherlink.com 1.10,2013-01-18 14:03:00,
2013-01-18 06:18:00,30.9,30.0,30.39,ESE,116,0.0,1.0,98,0.00,,,0.00,weatherlink.com 1.10,2013-01-18 14:18:00,
2013-01-18 06:33:00,30.8,30.0,30.39,NW,316,0.0,2.0,98,0.00,,,0.00,weatherlink.com 1.10,2013-01-18 14:33:00,
2013-01-18 06:48:00,30.6,30.0,30.40,NW,322,1.0,2.0,98,0.00,,,0.00,weatherlink.com 1.10,2013-01-18 14:48:00,
2013-01-18 07:03:00,30.5,30.0,30.40,NE,40,0.0,1.0,98,0.00,,,0.00,weatherlink.com 1.10,2013-01-18 15:03:00,
2013-01-18 07:18:00,30.3,30.0,30.40,SW,228,0.0,2.0,98,0.00,,,0.00,weatherlink.com 1.10,2013-01-18 15:18:00,
2013-01-18 07:33:00,30.3,30.0,30.40,SE,124,0.0,1.0,98,0.00,,,0.00,weatherlink.com 1.10,2013-01-18 15:33:00,
2013-01-18 07:48:00,30.2,30.0,30.41,ENE,60,0.0,1.0,98,0.00,,,0.00,weatherlink.com 1.10,2013-01-18 15:48:00,
2013-01-18 08:03:00,30.0,30.0,30.41,ENE,59,0.0,1.0,98,0.00,,,0.00,weatherlink.com 1.10,2013-01-18 16:03:00,
2013-01-18 08:18:00,30.2,30.0,30.42,North,10,0.0,1.0,98,0.00,,,0.00,weatherlink.com 1.10,2013-01-18 16:18:00,
2013-01-18 08:33:00,30.2,30.0,30.42,NNE,31,0.0,0.0,98,0.00,,,0.00,weatherlink.com 1.10,2013-01-18 16:33:00,
2013-01-18 08:48:00,30.2,30.0,30.42,NW,321,0.0,1.0,98,0.00,,,0.00,weatherlink.com 1.10,2013-01-18 16:48:00,
2013-01-18 09:18:00,30.1,30.0,30.43,NW,316,0.0,2.0,98,0.00,,,0.00,weatherlink.com 1.10,2013-01-18 17:18:00,
2013-01-18 09:34:00,30.4,30.0,30.43,North,349,0.0,1.0,98,0.00,,,0.00,weatherlink.com 1.10,2013-01-18 17:34:00,
2013-01-18 09:48:00,30.4,30.0,30.43,ENE,75,1.0,1.0,98,0.00,,,0.00,weatherlink.com 1.10,2013-01-18 17:48:00,
2013-01-18 10:04:00,30.3,30.0,30.43,ENE,66,0.0,1.0,98,0.00,,,0.00,weatherlink.com 1.10,2013-01-18 18:04:00,
2013-01-18 10:18:00,30.5,30.0,30.44,North,5,0.0,1.0,98,0.00,,,0.00,weatherlink.com 1.10,2013-01-18 18:18:00,
2013-01-18 10:33:00,30.6,30.0,30.44,NW,311,0.0,1.0,98,0.00,,,0.00,weatherlink.com 1.10,2013-01-18 18:33:00,
2013-01-18 10:48:00,31.0,31.0,30.43,SW,225,0.0,0.0,98,0.00,,,0.00,weatherlink.com 1.10,2013-01-18 18:48:00,
2013-01-18 11:03:00,31.4,31.0,30.43,NW,315,0.0,1.0,98,0.00,,,0.00,weatherlink.com 1.10,2013-01-18 19:03:00,
2013-01-18 11:19:00,31.4,31.0,30.43,ESE,115,0.0,2.0,98,0.00,,,0.00,weatherlink.com 1.10,2013-01-18 19:19:00,
2013-01-18 11:35:00,31.6,31.0,30.42,NW,320,1.0,2.0,98,0.01,,,0.01,weatherlink.com 1.10,2013-01-18 19:35:00,
2013-01-18 11:49:00,32.1,32.0,30.41,ESE,123,1.0,1.0,98,0.01,,,0.01,weatherlink.com 1.10,2013-01-18 19:49:00,
2013-01-18 12:04:00,32.1,31.0,30.41,SSE,149,0.0,2.0,97,0.01,,,0.01,weatherlink.com 1.10,2013-01-18 20:04:00,
2013-01-18 12:19:00,32.7,32.0,30.41,ESE,118,1.0,2.0,97,0.01,,,0.01,weatherlink.com 1.10,2013-01-18 20:19:00,
2013-01-18 12:34:00,33.0,32.0,30.41,WNW,299,0.0,1.0,97,0.00,,,0.01,weatherlink.com 1.10,2013-01-18 20:34:00,
2013-01-18 12:49:00,33.9,33.0,30.40,SW,235,0.0,1.0,96,0.00,,,0.01,weatherlink.com 1.10,2013-01-18 20:49:00,
2013-01-18 13:04:00,34.1,33.0,30.39,NNE,23,0.0,1.0,95,0.00,,,0.01,weatherlink.com 1.10,2013-01-18 21:04:00,
2013-01-18 13:19:00,34.5,33.0,30.39,NNE,23,0.0,1.0,94,0.00,,,0.01,weatherlink.com 1.10,2013-01-18 21:19:00,
2013-01-18 13:34:00,34.0,33.0,30.39,NE,44,0.0,3.0,94,0.00,,,0.01,weatherlink.com 1.10,2013-01-18 21:34:00,
2013-01-18 13:49:00,34.5,33.0,30.39,East,96,1.0,1.0,95,0.00,,,0.01,weatherlink.com 1.10,2013-01-18 21:49:00,
2013-01-18 14:04:00,34.6,33.0,30.39,NE,36,2.0,2.0,93,0.00,,,0.01,weatherlink.com 1.10,2013-01-18 22:04:00,
2013-01-18 14:19:00,34.5,33.0,30.39,West,278,0.0,1.0,93,0.00,,,0.01,weatherlink.com 1.10,2013-01-18 22:19:00,
2013-01-18 14:34:00,34.3,33.0,30.39,NE,46,0.0,2.0,94,0.00,,,0.01,weatherlink.com 1.10,2013-01-18 22:34:00,
2013-01-18 14:49:00,34.5,33.0,30.39,NE,56,2.0,3.0,94,0.00,,,0.01,weatherlink.com 1.10,2013-01-18 22:49:00,
2013-01-18 15:04:00,34.1,33.0,30.39,East,94,0.0,2.0,94,0.00,,,0.01,weatherlink.com 1.10,2013-01-18 23:04:00,
2013-01-18 15:19:00,34.1,33.0,30.38,North,6,0.0,3.0,95,0.00,,,0.01,weatherlink.com 1.10,2013-01-18 23:19:00,
2013-01-18 15:34:00,33.9,33.0,30.39,NE,47,0.0,2.0,95,0.00,,,0.01,weatherlink.com 1.10,2013-01-18 23:34:00,
2013-01-18 15:49:00,33.7,33.0,30.39,WNW,298,0.0,4.0,95,0.00,,,0.01,weatherlink.com 1.10,2013-01-18 23:49:00,
2013-01-18 16:04:00,33.8,33.0,30.39,NNE,29,0.0,1.0,96,0.00,,,0.01,weatherlink.com 1.10,2013-01-19 00:04:00,
2013-01-18 16:19:00,33.5,32.0,30.39,NE,54,1.0,2.0,95,0.00,,,0.01,weatherlink.com 1.10,2013-01-19 00:19:00,
2013-01-18 16:34:00,33.0,32.0,30.39,ENE,60,0.0,3.0,96,0.00,,,0.01,weatherlink.com 1.10,2013-01-19 00:34:00,
2013-01-18 16:49:00,32.9,32.0,30.38,ENE,68,0.0,1.0,96,0.00,,,0.01,weatherlink.com 1.10,2013-01-19 00:49:00,
2013-01-18 17:04:00,32.7,32.0,30.38,WSW,239,0.0,1.0,96,0.00,,,0.01,weatherlink.com 1.10,2013-01-19 01:04:00,
2013-01-18 17:19:00,32.3,31.0,30.39,NE,50,1.0,1.0,96,0.00,,,0.01,weatherlink.com 1.10,2013-01-19 01:19:00,
2013-01-18 17:34:00,31.9,31.0,30.39,NE,47,0.0,2.0,96,0.00,,,0.01,weatherlink.com 1.10,2013-01-19 01:34:00,
2013-01-18 17:49:00,31.4,30.0,30.39,NE,49,0.0,2.0,96,0.00,,,0.01,weatherlink.com 1.10,2013-01-19 01:49:00,
2013-01-18 18:04:00,31.2,31.0,30.39,NW,315,0.0,1.0,97,0.00,,,0.01,weatherlink.com 1.10,2013-01-19 02:04:00,
2013-01-18 18:19:00,31.3,31.0,30.39,NNW,332,0.0,1.0,97,0.00,,,0.01,weatherlink.com 1.10,2013-01-19 02:19:00,
2013-01-18 18:34:00,31.0,30.0,30.39,NE,38,0.0,2.0,97,0.00,,,0.01,weatherlink.com 1.10,2013-01-19 02:34:00,
2013-01-18 18:49:00,31.0,30.0,30.39,NW,323,0.0,2.0,97,0.00,,,0.01,weatherlink.com 1.10,2013-01-19 02:49:00,
2013-01-18 19:04:00,30.8,30.0,30.39,NW,307,0.0,1.0,97,0.00,,,0.01,weatherlink.com 1.10,2013-01-19 03:04:00,
2013-01-18 19:19:00,30.7,30.0,30.39,NNE,15,0.0,1.0,97,0.00,,,0.01,weatherlink.com 1.10,2013-01-19 03:19:00,
2013-01-18 19:34:00,30.6,30.0,30.39,NE,46,0.0,1.0,97,0.00,,,0.01,weatherlink.com 1.10,2013-01-19 03:34:00,
2013-01-18 19:49:00,30.4,30.0,30.39,NNW,337,0.0,0.0,97,0.00,,,0.01,weatherlink.com 1.10,2013-01-19 03:49:00,
2013-01-18 20:04:00,30.4,30.0,30.39,NW,309,0.0,2.0,97,0.00,,,0.01,weatherlink.com 1.10,2013-01-19 04:04:00,
2013-01-18 20:19:00,30.5,30.0,30.39,NW,309,0.0,0.0,98,0.00,,,0.01,weatherlink.com 1.10,2013-01-19 04:19:00,
2013-01-18 20:34:00,30.4,30.0,30.40,SW,217,0.0,1.0,98,0.00,,,0.01,weatherlink.com 1.10,2013-01-19 04:34:00,
2013-01-18 20:49:00,30.4,30.0,30.40,West,281,1.0,1.0,98,0.00,,,0.01,weatherlink.com 1.10,2013-01-19 04:49:00,
2013-01-18 21:04:00,30.5,30.0,30.40,SSW,203,0.0,1.0,98,0.00,,,0.01,weatherlink.com 1.10,2013-01-19 05:04:00,
2013-01-18 21:19:00,30.1,30.0,30.40,SE,126,0.0,1.0,98,0.00,,,0.01,weatherlink.com 1.10,2013-01-19 05:19:00,
2013-01-18 21:34:00,30.1,30.0,30.41,WSW,238,0.0,1.0,98,0.00,,,0.01,weatherlink.com 1.10,2013-01-19 05:34:00,
2013-01-18 21:49:00,29.8,29.0,30.41,West,264,0.0,3.0,97,0.00,,,0.01,weatherlink.com 1.10,2013-01-19 05:49:00,
2013-01-18 22:04:00,29.8,29.0,30.41,West,274,1.0,1.0,98,0.00,,,0.01,weatherlink.com 1.10,2013-01-19 06:04:00,
2013-01-18 22:19:00,29.7,29.0,30.41,WSW,243,0.0,1.0,98,0.00,,,0.01,weatherlink.com 1.10,2013-01-19 06:19:00,
2013-01-18 22:34:00,29.5,29.0,30.40,WSW,245,0.0,1.0,98,0.00,,,0.01,weatherlink.com 1.10,2013-01-19 06:34:00,
2013-01-18 22:49:00,29.4,29.0,30.40,WSW,238,0.0,1.0,98,0.00,,,0.01,weatherlink.com 1.10,2013-01-19 06:49:00,
2013-01-18 23:04:00,29.2,29.0,30.40,WSW,256,0.0,1.0,97,0.00,,,0.01,weatherlink.com 1.10,2013-01-19 07:04:00,
2013-01-18 23:19:00,29.2,29.0,30.40,NW,307,0.0,1.0,98,0.00,,,0.01,weatherlink.com 1.10,2013-01-19 07:19:00,
2013-01-18 23:34:00,29.3,29.0,30.40,NNW,337,0.0,1.0,98,0.00,,,0.01,weatherlink.com 1.10,2013-01-19 07:34:00,
2013-01-18 23:49:00,29.3,29.0,30.40,NNW,333,0.0,1.0,98,0.00,,,0.01,weatherlink.com 1.10,2013-01-19 07:49:00,